Flag for Switzerland Weather past 2 weeks in Lausanne, Vaud, Switzerland

Now
49 °F

Cool.


Feels Like: 49 °F
Forecast: 47 / 51 °F
Wind: No wind

Location: Aigle

Current Time: Mar 28, 2015 at 7:05:29 PM

Latest Report: Mar 28, 2015 at 6:00 PM


Visibility: N/A

Pressure: 30.18 "Hg

Humidity: 49%

Dew point: 31 °F

Location of LausanneLocation

Historic Weather in Lausanne — Graph

°F

Lausanne temperature yesterday

Maximum temperature yesterday: 53 °F (at 4:00 PM)
Minimum temperature yesterday: 39 °F (at 11:00 PM)
Average temperature yesterday: 46 °F

Past Weeks' High & Low Weather Summary

 TemperatureHumidityPressure
High60 °F (Mar 19, 4:00 PM)97% (Mar 15, 5:00 AM)30.32 "Hg (Mar 15, 5:00 AM)
Low29 °F (Mar 15, 5:00 AM)41% (Mar 15, 9:00 PM)29.59 "Hg (Mar 25, 1:00 PM)
Average45 °F75%30.06 "Hg
* Reported Mar 13 5:00 PM — Mar 28 5:00 PM, Lausanne, Weather by CustomWeather, © 2015

Note: Actual official high and low records may vary slightly from our data, if they occured in-between our weather recording intervals... More about our weather records

Advertising

Lausanne weather history for previous 24 hours

 ConditionsComfort  
Time TempWeatherWind HumidityBarometerVisibility
5:00 PM
Sat, Mar 28
49 °FCool.3 mph56%30.19 "HgN/A
4:00 PM49 °FOvercast.5 mph57%30.18 "Hg12 mi
3:00 PM49 °FCool.8 mph59%30.18 "HgN/A
2:00 PM51 °FCool.6 mph54%30.19 "HgN/A
1:00 PM50 °FOvercast.8 mph50%30.21 "Hg16 mi
12:00 PM49 °FCool.9 mph59%30.22 "HgN/A
11:00 AM48 °FCool.13 mph59%30.23 "HgN/A
10:00 AM47 °FPassing clouds.3 mph52%30.24 "Hg22 mi
9:00 AM44 °FQuite cool.7 mph60%30.27 "HgN/A
8:00 AM40 °FQuite cool.3 mph70%30.29 "HgN/A
7:00 AM35 °FSunny.6 mph81%30.30 "Hg19 mi
6:00 AM33 °FChilly.6 mph88%30.31 "HgN/A
5:00 AM33 °FChilly.3 mph89%30.31 "HgN/A
3:00 AM33 °FChilly.2 mph91%30.32 "HgN/A
2:00 AM35 °FChilly.2 mph89%30.32 "HgN/A
1:00 AM38 °FChilly.3 mph79%30.31 "HgN/A
12:00 AM38 °FChilly.6 mph80%30.31 "HgN/A
11:00 PM
Fri, Mar 27
39 °FChilly.2 mph78%30.32 "HgN/A
9:00 PM41 °FQuite cool.3 mph77%30.29 "HgN/A
8:00 PM42 °FQuite cool.2 mph74%30.27 "HgN/A
7:00 PM46 °FPassing clouds.2 mph68%30.23 "Hg16 mi
Weather by CustomWeather, © 2015

See weather overviewHow to use our weather pages